Location: Chateh
(58.6667°N, 118.6000°W)
Time: 11:21:52
(UTC+00:00)

PCSat - Pass Details

Date: 06 December 2023
Orbit: 784 x 791 km, 67.0° (Epoch: 01 March)

Event Time Altitude Azimuth Distance (km) Brightness Sun altitude
Exits shadow 11:58:03 37° 121° (ESE) 1,217 10.8 -32.9°
Maximum altitude 11:58:06 37° 120° (ESE) 1,216 10.8 -32.9°
Drops below altitude 10° 12:03:01 10° 55° (NE) 2,362 12.7 -32.3°
Sets 12:05:35 0° 47° (NE) 3,296 13.5 -32.0°
